TimeCST,TemperatureF,Dew PointF,Humidity,Sea Level PressureIn,VisibilityMPH,Wind Direction,Wind SpeedMPH,Gust SpeedMPH,PrecipitationIn,Events,Conditions,WindDirDegrees,DateUTC
12:15 AM,57.2,39.2,51,29.60,10.0,West,10.4,-,N/A,,Clear,280,2012-02-24 06:15:00
12:35 AM,55.4,37.4,51,29.61,10.0,West,10.4,-,N/A,,Clear,280,2012-02-24 06:35:00
12:55 AM,55.4,37.4,51,29.62,10.0,West,8.1,-,N/A,,Clear,280,2012-02-24 06:55:00
1:15 AM,53.6,37.4,54,29.63,10.0,West,10.4,-,N/A,,Clear,280,2012-02-24 07:15:00
1:35 AM,53.6,37.4,54,29.65,10.0,West,13.8,18.4,N/A,,Clear,270,2012-02-24 07:35:00
1:55 AM,53.6,33.8,47,29.67,10.0,WNW,16.1,24.2,N/A,,Clear,290,2012-02-24 07:55:00
2:15 AM,51.8,35.6,54,29.67,10.0,West,12.7,20.7,N/A,,Clear,280,2012-02-24 08:15:00
2:35 AM,51.8,33.8,50,29.67,10.0,WNW,12.7,20.7,N/A,,Clear,290,2012-02-24 08:35:00
2:55 AM,50.0,32.0,50,29.69,10.0,West,16.1,21.9,N/A,,Clear,280,2012-02-24 08:55:00
3:15 AM,50.0,30.2,47,29.70,10.0,West,13.8,19.6,N/A,,Clear,270,2012-02-24 09:15:00
3:35 AM,50.0,30.2,47,29.72,10.0,West,13.8,20.7,N/A,,Mostly Cloudy,280,2012-02-24 09:35:00
3:55 AM,50.0,28.4,43,29.73,10.0,West,12.7,17.3,N/A,,Overcast,270,2012-02-24 09:55:00
4:15 AM,48.2,30.2,50,29.75,10.0,West,12.7,21.9,N/A,,Overcast,280,2012-02-24 10:15:00
4:35 AM,48.2,30.2,50,29.77,10.0,West,12.7,20.7,N/A,,Overcast,270,2012-02-24 10:35:00
4:55 AM,48.2,26.6,43,29.77,10.0,WNW,12.7,25.3,N/A,,Overcast,290,2012-02-24 10:55:00
5:15 AM,48.2,26.6,43,29.78,10.0,WNW,10.4,23.0,N/A,,Overcast,300,2012-02-24 11:15:00
5:35 AM,48.2,26.6,43,29.80,10.0,WNW,12.7,20.7,N/A,,Overcast,290,2012-02-24 11:35:00
5:55 AM,48.2,26.6,43,29.81,10.0,WNW,18.4,24.2,N/A,,Overcast,290,2012-02-24 11:55:00
6:15 AM,46.4,26.6,46,29.83,10.0,West,11.5,-,N/A,,Overcast,280,2012-02-24 12:15:00
6:35 AM,46.4,26.6,46,29.85,10.0,WNW,12.7,16.1,N/A,,Overcast,290,2012-02-24 12:35:00
6:55 AM,46.4,24.8,43,29.87,10.0,WNW,15.0,24.2,N/A,,Overcast,290,2012-02-24 12:55:00
7:15 AM,44.6,24.8,46,29.89,10.0,WNW,9.2,16.1,N/A,,Overcast,290,2012-02-24 13:15:00
7:35 AM,44.6,26.6,49,29.91,10.0,West,10.4,-,N/A,,Overcast,280,2012-02-24 13:35:00
7:55 AM,44.6,24.8,46,29.92,10.0,West,11.5,24.2,N/A,,Overcast,280,2012-02-24 13:55:00
8:55 AM,44.6,24.8,46,29.97,10.0,West,21.9,29.9,N/A,,Clear,280,2012-02-24 14:55:00
9:15 AM,44.6,24.8,46,29.98,10.0,West,12.7,21.9,N/A,,Clear,280,2012-02-24 15:15:00
9:35 AM,46.4,26.6,46,29.99,10.0,West,13.8,28.8,N/A,,Clear,280,2012-02-24 15:35:00
9:55 AM,46.4,26.6,46,30.01,10.0,WNW,16.1,27.6,N/A,,Partly Cloudy,290,2012-02-24 15:55:00
10:15 AM,46.4,26.6,46,30.02,10.0,WNW,18.4,27.6,N/A,,Scattered Clouds,290,2012-02-24 16:15:00
10:35 AM,48.2,24.8,40,30.02,10.0,WNW,16.1,26.5,N/A,,Mostly Cloudy,300,2012-02-24 16:35:00
10:55 AM,48.2,26.6,43,30.03,10.0,WNW,16.1,28.8,N/A,,Mostly Cloudy,300,2012-02-24 16:55:00
11:15 AM,48.2,26.6,43,30.04,10.0,WNW,16.1,25.3,N/A,,Overcast,300,2012-02-24 17:15:00
11:35 AM,46.4,24.8,43,30.05,10.0,WNW,15.0,27.6,N/A,,Overcast,300,2012-02-24 17:35:00
11:55 AM,46.4,24.8,43,30.06,10.0,WNW,16.1,25.3,N/A,,Overcast,290,2012-02-24 17:55:00
12:15 PM,46.4,24.8,43,30.06,10.0,NW,16.1,27.6,N/A,,Overcast,310,2012-02-24 18:15:00
12:35 PM,48.2,24.8,40,30.07,10.0,WNW,16.1,26.5,N/A,,Overcast,290,2012-02-24 18:35:00
12:55 PM,48.2,24.8,40,30.07,10.0,WNW,15.0,25.3,N/A,,Overcast,290,2012-02-24 18:55:00
1:15 PM,48.2,24.8,40,30.07,10.0,WNW,13.8,24.2,N/A,,Overcast,290,2012-02-24 19:15:00
1:35 PM,48.2,26.6,43,30.07,10.0,WNW,18.4,24.2,N/A,,Overcast,300,2012-02-24 19:35:00
1:55 PM,48.2,24.8,40,30.08,10.0,WNW,17.3,25.3,N/A,,Mostly Cloudy,300,2012-02-24 19:55:00
2:15 PM,48.2,24.8,40,30.08,10.0,NW,12.7,21.9,N/A,,Scattered Clouds,310,2012-02-24 20:15:00
2:35 PM,48.2,24.8,40,30.08,10.0,WNW,13.8,19.6,N/A,,Scattered Clouds,300,2012-02-24 20:35:00
2:55 PM,50.0,24.8,37,30.09,10.0,NW,16.1,23.0,N/A,,Scattered Clouds,310,2012-02-24 20:55:00
3:15 PM,48.2,24.8,40,30.09,10.0,WNW,10.4,21.9,N/A,,Scattered Clouds,300,2012-02-24 21:15:00
3:35 PM,48.2,23.0,37,30.09,10.0,NW,12.7,21.9,N/A,,Clear,310,2012-02-24 21:35:00
3:55 PM,50.0,23.0,35,30.10,10.0,WNW,13.8,19.6,N/A,,Clear,300,2012-02-24 21:55:00
4:15 PM,50.0,23.0,35,30.10,10.0,WNW,6.9,19.6,N/A,,Scattered Clouds,300,2012-02-24 22:15:00
4:35 PM,50.0,21.2,32,30.11,10.0,WNW,9.2,-,N/A,,Partly Cloudy,300,2012-02-24 22:35:00
4:55 PM,48.2,21.2,34,30.11,10.0,NW,8.1,-,N/A,,Clear,320,2012-02-24 22:55:00
5:15 PM,48.2,21.2,34,30.12,10.0,NW,5.8,-,N/A,,Clear,310,2012-02-24 23:15:00
5:35 PM,48.2,21.2,34,30.12,10.0,NW,4.6,-,N/A,,Mostly Cloudy,310,2012-02-24 23:35:00
5:55 PM,46.4,21.2,37,30.13,10.0,NW,3.5,-,N/A,,Overcast,310,2012-02-24 23:55:00
6:15 PM,48.2,21.2,34,30.14,10.0,NW,5.8,-,N/A,,Overcast,320,2012-02-25 00:15:00
6:35 PM,46.4,21.2,37,30.15,10.0,NNW,4.6,-,N/A,,Mostly Cloudy,330,2012-02-25 00:35:00
6:55 PM,44.6,21.2,39,30.16,10.0,NW,3.5,-,N/A,,Mostly Cloudy,320,2012-02-25 00:55:00
7:15 PM,46.4,21.2,37,30.17,10.0,NW,5.8,-,N/A,,Partly Cloudy,310,2012-02-25 01:15:00
7:35 PM,46.4,21.2,37,30.18,10.0,NW,6.9,-,N/A,,Clear,310,2012-02-25 01:35:00
7:55 PM,44.6,19.4,37,30.18,10.0,WNW,8.1,-,N/A,,Clear,300,2012-02-25 01:55:00
8:15 PM,44.6,19.4,37,30.19,10.0,WNW,4.6,-,N/A,,Clear,300,2012-02-25 02:15:00
8:35 PM,42.8,21.2,42,30.20,10.0,WNW,3.5,-,N/A,,Clear,290,2012-02-25 02:35:00
8:55 PM,42.8,21.2,42,30.20,10.0,WNW,4.6,-,N/A,,Clear,290,2012-02-25 02:55:00
9:15 PM,42.8,21.2,42,30.22,10.0,WNW,4.6,-,N/A,,Clear,300,2012-02-25 03:15:00
9:35 PM,42.8,21.2,42,30.22,10.0,West,3.5,-,N/A,,Clear,280,2012-02-25 03:35:00
9:55 PM,39.2,21.2,49,30.23,10.0,West,4.6,-,N/A,,Clear,260,2012-02-25 03:55:00
10:15 PM,39.2,21.2,49,30.23,10.0,West,4.6,-,N/A,,Clear,260,2012-02-25 04:15:00
10:55 PM,39.2,19.4,45,30.23,10.0,West,3.5,-,N/A,,Clear,260,2012-02-25 04:55:00
11:15 PM,37.4,19.4,48,30.23,10.0,WSW,4.6,-,N/A,,Clear,240,2012-02-25 05:15:00
11:35 PM,37.4,19.4,48,30.23,10.0,WSW,3.5,-,N/A,,Clear,240,2012-02-25 05:35:00
11:55 PM,35.6,21.2,56,30.23,10.0,WSW,3.5,-,N/A,,Clear,250,2012-02-25 05:55:00